Wetbulb
44.57 44.30 44.39 44.61 44.99 45.11 45.25 45.00 45.66 46.33 46.61 46.91 47.55 47.91 48.55 49.08 49.38 49.69 48.04 51.05 50.50 49.94 49.88 51.82 52.27 48.71 48.37 48.41 42.57 48.92 45.73 45.49 40.18 37.09 35.00 33.29 32.51 35.18 35.03 40.51 36.45 33.16 30.79 28.22 31.68 28.91 27.02 44.79 43.03 35.68 41.13 43.69 44.55 43.97
44.62 44.55 44.62 44.71 44.95 45.01 45.30 45.59 45.94 45.91 46.03 46.67 47.66 47.67 47.83 48.05 48.04 48.40 45.78 51.75 53.39 48.94 51.87 55.75 55.69 55.15 55.20 54.43 50.46 48.13 46.30 47.76 47.33 41.33 39.49 37.14 33.14 34.28 33.72 30.10 43.43 34.20 38.73 33.96 35.96 33.82 42.85 43.62 43.47 46.33 45.52 44.25 43.95 44.48
44.77 44.67 44.67 44.87 44.97 45.35 45.46 45.65 46.19 46.45 46.57 47.13 47.67 47.65 47.80 48.02 48.24 48.03 46.92 51.27 52.01 49.61 50.49 53.01 52.00 54.20 56.49 57.13 57.68 48.18 49.82 52.21 50.22 51.32 43.58 40.25 35.41 34.08 32.81 33.22 37.09 42.40 44.88 37.12 37.62 41.65 43.45 44.37 45.04 46.40 46.94 46.66 48.02 46.57
44.62 44.69 44.88 45.26 45.58 45.56 45.75 46.24 46.49 46.76 46.90 47.27 47.31 47.29 47.39 47.77 48.32 48.74 46.70 51.02 51.58 50.24 41.20 48.45 56.87 52.75 55.78 57.22 57.40 56.54 54.80 55.41 53.99 51.52 40.46 38.25 37.18 45.49 34.42 39.14 36.79 41.70 42.76 40.84 39.44 42.07 45.03 46.34 46.90 47.91 46.90 47.10 44.40 43.14
45.18 45.22 45.25 45.57 45.68 46.01 46.28 46.46 46.63 46.69 46.95 47.34 47.55 47.61 47.84 48.33 49.42 50.47 49.94 51.50 53.16 49.41 43.72 46.11 52.89 54.25 55.21 55.34 55.29 56.19 54.99 52.39 48.93 40.96 35.34 37.33 39.23 40.64 35.82 37.45 34.05 43.24 41.19 34.88 32.00 44.68 43.61 43.31 45.13 45.47 43.68 42.79 43.18 41.11
43.97 44.00 44.14 44.80 45.14 45.13 45.53 45.83 46.17 46.61 47.06 47.45 47.95 48.36 48.79 49.41 49.65 49.86 46.41 51.58 52.79 52.93 48.67 39.92 50.66 51.20 53.02 54.34 53.48 54.06 53.42 51.46 50.76 45.57 40.15 43.42 46.91 40.58 33.54 31.07 43.48 44.92 46.01 46.21 44.13 46.37 44.02 43.17 42.47 42.74 40.85 40.57 40.61 39.80
43.88 43.41 43.72 44.11 44.32 44.93 44.89 45.99 46.15 47.20 46.99 47.33 47.84 48.65 48.84 48.95 50.11 47.53 48.39 51.77 51.71 51.09 47.02 40.13 39.51 49.14 52.63 52.97 50.62 50.63 52.15 50.80 49.05 46.40 39.51 40.61 42.40 44.36 32.89 32.48 42.64 44.61 44.70 45.36 46.21 44.41 41.47 42.49 39.64 40.90 39.50 38.97 39.25 38.43
44.10 44.11 44.36 44.55 44.40 44.73 44.46 45.44 46.97 47.24 47.56 47.78 48.10 48.37 48.53 49.08 51.00 49.27 52.59 50.14 50.45 51.32 48.57 37.19 38.60 42.51 51.73 42.47 41.31 49.01 44.11 45.54 45.09 42.33 40.95 36.59 40.71 35.21 33.63 41.21 42.72 44.40 44.61 43.59 42.92 43.69 41.72 40.94 39.87 38.81 38.86 38.16 36.50 35.46
46.46 46.03 45.10 44.83 44.84 44.98 45.28 46.49 46.92 47.33 47.67 48.16 48.46 48.72 49.62 48.81 49.88 50.32 50.13 49.27 54.39 49.32 38.42 37.00 36.99 36.82 48.82 42.36 40.79 43.22 45.23 36.99 42.04 35.17 35.92 38.17 31.69 35.24 41.08 40.99 41.50 43.01 42.96 41.93 42.26 41.42 40.22 38.72 38.41 38.13 36.95 35.81 35.88 35.70
45.90 46.56 46.35 46.30 46.25 46.27 46.29 46.65 47.06 47.49 48.30 48.50 49.67 49.15 41.75 48.29 49.49 48.82 50.04 43.77 42.82 44.87 42.93 36.44 42.40 38.45 45.13 36.66 37.20 37.61 36.64 34.65 32.08 34.13 41.17 36.23 29.98 38.81 40.85 41.42 41.80 43.19 42.53 41.51 37.24 36.24 36.96 36.98 36.78 36.84 36.61 36.98 35.97 33.84
45.73 46.28 46.95 47.10 46.64 46.52 46.52 46.77 47.26 48.14 48.55 50.23 47.35 42.80 48.45 49.09 49.41 42.30 35.76 36.23 37.98 34.42 37.85 37.84 39.37 38.65 45.10 37.40 36.12 37.33 34.80 34.40 32.03 33.80 33.09 28.69 29.89 37.69 40.02 40.08 41.35 41.06 41.37 41.42 41.29 40.11 38.79 37.63 36.66 35.35 33.54 33.04 30.62 29.73
45.57 45.63 45.96 47.43 47.78 47.31 47.17 47.40 48.04 50.55 50.56 49.91 49.67 49.89 48.49 46.26 40.83 35.45 33.51 34.88 35.90 34.19 36.00 36.61 38.42 42.51 38.09 43.62 34.58 37.28 33.68 33.30 29.59 36.92 34.51 31.79 33.93 37.28 38.76 39.34 40.04 39.72 38.63 38.32 39.15 38.21 38.09 37.00 35.63 32.99 31.39 30.72 30.01 29.85
44.26 44.78 45.06 45.29 46.17 47.59 48.39 48.86 48.90 50.25 49.43 48.57 42.47 37.91 41.11 35.44 33.71 28.48 29.97 31.82 32.89 33.69 35.14 34.83 34.46 38.29 39.00 40.59 35.73 36.28 35.37 32.71 34.76 32.97 31.88 31.37 36.39 37.51 38.71 39.03 38.94 39.09 38.65 37.07 35.83 35.40 34.37 32.93 32.62 31.93 31.33 31.67 30.23 29.71
43.52 43.91 44.25 45.20 45.20 45.75 46.31 47.46 47.50 47.78 46.44 38.26 34.49 30.59 32.83 31.87 30.11 30.41 31.31 31.91 32.28 32.47 33.92 35.91 34.65 34.65 34.48 34.45 33.56 33.29 32.82 34.28 31.91 29.50 29.38 32.94 35.47 36.85 38.16 39.22 37.83 35.30 33.06 31.95 32.11 31.61 30.88 30.49 29.72 30.10 30.11 30.03 27.00 26.41
43.13 42.85 43.53 43.44 44.59 44.96 45.02 45.31 45.21 43.87 38.24 32.43 32.32 29.23 29.22 31.17 32.08 32.09 32.28 32.82 33.17 34.96 34.65 35.91 35.36 37.02 33.20 33.17 32.98 32.73 31.21 29.68 30.31 29.54 31.73 34.27 35.92 36.45 36.27 34.72 33.45 32.70 32.25 31.95 31.70 30.33 29.84 29.49 28.81 28.59 28.15 27.43 26.56 25.08
44.71 43.13 41.15 43.27 44.34 45.13 45.13 44.60 43.38 40.22 35.78 33.09 31.45 31.01 32.06 32.08 31.51 31.87 31.90 32.12 35.29 33.92 35.01 34.81 33.54 32.77 31.46 32.64 32.08 30.60 30.45 27.33 28.64 30.63 32.64 35.01 34.99 35.62 34.37 34.43 35.26 34.66 33.22 32.13 32.03 31.42 30.23 29.07 27.09 27.34 27.21 24.79 22.14 20.91
43.76 38.94 42.79 43.48 44.43 44.62 44.73 42.23 39.65 34.80 32.06 31.82 30.56 31.76 31.73 31.69 30.62 31.55 31.76 32.79 35.64 33.92 32.31 32.62 30.76 28.69 31.69 30.59 28.69 30.17 27.66 29.72 31.17 32.06 33.86 35.22 34.78 35.22 34.45 34.31 33.42 33.23 31.84 31.18 30.91 30.58 30.14 29.41 26.77 26.06 24.96 26.08 25.83 23.66
38.95 41.33 43.37 43.92 44.58 43.35 41.78 41.53 35.60 33.38 30.11 31.49 29.76 31.33 31.72 31.75 31.75 31.76 33.17 34.65 34.60 33.17 32.77 31.31 33.14 30.72 28.32 27.04 27.26 30.07 30.42 31.54 32.89 33.06 34.82 36.06 36.63 36.40 36.80 35.36 33.38 31.97 30.66 30.28 30.29 30.00 28.37 26.42 25.49 23.89 24.29 24.85 24.20 23.35
39.54 40.55 42.84 43.87 43.66 39.37 33.32 34.98 36.76 29.86 30.57 31.55 31.73 32.64 33.02 32.83 33.42 34.22 34.45 35.29 35.71 35.35 34.68 32.55 27.18 25.25 25.12 26.37 25.93 28.54 31.52 31.90 32.14 32.85 33.18 34.49 34.26 33.50 32.94 32.22 31.63 31.09 30.72 30.11 28.66 25.06 24.85 24.76 23.44 22.24 22.38 22.17 19.84 19.80
41.66 41.48 42.20 42.70 43.33 33.75 31.43 31.78 37.90 31.94 30.15 31.14 32.83 32.10 31.99 31.87 33.18 32.83 32.85 32.58 33.08 31.32 28.11 26.17 24.88 26.19 26.58 27.08 28.77 29.61 29.94 33.15 32.49 30.61 30.11 31.42 32.13 32.07 31.81 31.39 29.57 27.92 27.31 27.05 26.70 25.62 23.59 22.14 22.52 22.04 19.89 19.04 14.76 11.68
39.89 39.09 41.66 41.69 37.17 35.78 32.32 30.65 31.62 32.39 31.86 31.10 31.44 30.96 30.09 31.45 31.38 31.23 29.62 30.98 27.59 27.47 25.58 27.83 27.16 27.32 29.06 29.23 29.94 29.80 28.18 28.52 28.37 31.54 30.29 28.36 30.20 30.50 30.16 30.44 29.53 28.55 26.63 25.03 23.02 21.05 19.62 18.17 18.61 18.68 10.68 7.29 6.95 7.94
36.55 41.42 34.55 36.36 31.75 31.04 30.30 32.91 30.41 32.06 30.61 30.03 29.39 30.52 28.19 26.25 27.26 30.12 29.27 25.51 25.23 26.91 27.69 26.90 27.07 26.88 25.92 25.77 26.95 28.38 29.01 28.05 27.22 26.37 26.64 26.93 23.55 23.82 23.97 23.69 22.21 20.45 20.80 21.30 21.35 18.39 17.62 17.92 16.57 14.49 7.58 6.21 11.19 11.65
39.48 37.84 32.17 31.08 23.69 22.84 21.15 30.50 22.77 26.79 21.03 24.55 27.42 25.23 26.73 26.70 27.39 30.71 24.28 25.82 25.65 29.02 29.27 28.40 27.79 27.91 25.69 25.60 25.78 26.55 26.75 25.45 23.34 23.08 22.44 21.49 21.11 20.52 19.47 19.14 21.36 19.06 18.14 18.92 20.22 19.08 17.27 16.13 14.05 9.75 10.06 8.12 5.39 6.34
37.38 31.18 26.47 23.79 23.75 23.90 23.73 20.55 26.94 25.04 23.43 24.77 23.50 19.97 24.51 24.09 26.20 22.20 21.20 22.95 24.71 26.29 26.87 27.83 28.45 25.20 23.17 22.07 20.58 21.71 24.17 23.45 22.16 22.19 22.72 20.50 18.42 18.17 18.35 17.55 17.51 17.61 18.62 18.06 16.93 15.39 14.35 8.93 9.41 8.53 2.47 -0.39 -1.47 -1.34
22.19 21.28 23.03 17.20 23.86 19.09 17.21 24.12 21.56 22.16 22.79 23.96 19.47 21.27 23.83 25.04 19.00 20.79 20.14 21.59 19.82 19.93 21.81 25.42 22.57 23.78 20.81 19.77 20.00 20.25 22.49 21.58 18.41 16.19 19.30 20.95 18.81 17.67 16.48 16.06 14.98 14.76 15.18 10.46 7.36 3.63 3.10 1.84 -0.32 -2.16 -0.96 -4.31 -0.57 -0.82
19.95 25.34 23.56 24.41 24.52 23.93 24.27 21.25 22.22 22.69 23.88 23.23 23.90 25.76 26.96 23.04 16.26 14.70 18.95 19.11 17.10 17.02 18.89 19.93 21.92 18.21 17.86 18.90 17.13 16.59 17.37 21.33 18.61 14.78 15.54 16.41 15.51 14.58 12.47 11.53 10.69 8.34 9.09 2.11 -0.78 -2.31 -1.49 -1.69 -3.96 -2.37 -3.59 0.97 2.82 4.03
21.76 23.67 27.22 29.59 28.60 27.68 25.70 26.51 26.20 21.14 17.69 19.18 22.40 24.03 17.45 19.40 12.75 18.13 19.71 20.15 18.99 18.31 20.63 20.58 20.49 19.13 18.26 17.74 18.49 17.63 17.28 17.03 15.92 15.98 16.47 15.66 15.12 14.25 10.63 2.79 0.22 3.88 3.77 2.37 -2.40 -4.67 -5.57 -4.84 -5.21 -4.84 -5.02 1.17 1.74 -0.73
26.53 27.17 23.19 26.71 26.76 26.98 21.07 20.81 17.83 18.87 21.36 25.63 25.12 14.76 12.71 14.36 11.50 18.51 20.08 22.80 21.19 20.33 19.90 19.41 18.74 18.39 17.51 17.29 16.42 15.84 15.98 16.32 14.71 15.64 16.02 14.70 12.83 8.49 5.39 3.64 4.38 10.50 5.06 4.20 -1.44 1.56 0.41 -1.59 -5.21 -6.47 -6.29 -4.66 -6.66 -6.85
25.85 28.18 23.37 18.63 24.68 25.35 24.30 23.01 22.85 24.47 25.64 24.83 15.96 14.14 13.86 15.68 16.88 18.14 20.67 21.61 21.45 20.62 18.35 17.39 16.44 15.32 15.39 14.95 13.70 12.20 10.33 9.95 8.60 3.87 1.95 1.66 4.11 4.60 2.54 0.41 1.62 -0.30 -1.15 -1.45 5.72 8.02 5.13 2.22 3.52 -0.38 -5.03 0.33 1.34 0.12
23.86 23.97 18.91 15.05 12.43 19.47 23.01 25.52 24.97 25.24 25.67 24.95 19.15 17.56 15.25 13.93 15.38 16.59 16.60 17.01 17.04 15.08 15.35 15.04 15.00 12.01 10.35 10.70 8.20 8.14 7.08 4.72 4.86 0.44 -5.02 -6.66 -4.84 0.75 1.28 4.41 0.08 -2.71 -0.34 -3.96 -4.66 -2.08 3.67 0.02 -0.49 -4.56 -4.93 -1.09 1.03 -4.34
26.79 24.40 18.66 18.83 17.33 22.96 24.65 26.73 27.97 25.36 24.72 19.05 16.51 11.91 10.36 10.71 11.12 13.71 13.87 16.71 14.45 14.52 13.05 7.41 9.75 10.12 8.80 7.80 5.83 -0.51 -1.43 -0.11 0.36 -0.32 -2.75 -4.32 -3.22 -3.03 4.29 5.38 2.32 -3.23 -1.11 2.85 0.51 -4.84 -7.38 -7.92 -2.17 -3.94 -7.92 -6.84 -2.73 -6.33
23.82 22.10 13.63 13.81 18.81 22.07 25.73 24.28 24.00 22.19 21.33 17.55 12.42 8.83 8.89 9.81 2.74 5.80 12.40 12.23 10.24 10.13 10.51 10.06 7.58 4.33 2.54 2.53 1.32 0.12 -0.84 -0.83 2.98 -2.00 -2.40 -5.02 -5.75 -6.66 -6.47 -5.57 -5.75 2.47 2.86 0.36 -3.85 -7.74 -1.87 -1.81 -5.21 -1.30 -4.48 -7.38 -10.26 -13.06
18.34 17.15 15.99 13.25 14.07 15.25 16.44 13.51 16.23 12.64 12.32 11.18 11.10 10.37 7.85 5.27 2.16 7.51 12.30 11.51 5.89 4.02 7.53 9.24 8.73 8.36 6.43 1.71 -0.57 0.26 4.53 1.02 1.95 8.09 8.83 8.47 1.31 -0.49 -8.11 -7.74 -8.29 -8.83 -9.19 -10.46 -10.28 -9.92 -5.93 -0.53 0.37 -2.20 -6.11 -12.11 -11.73 -10.64
MSLP
988.20 989.35 990.52 991.54 992.59 993.69 994.59 995.72 996.50 997.04 997.51 998.77 999.63 1000.66 1001.67 1002.61 1003.77 1004.64 1004.48 1005.06 1004.77 1003.26 1001.00 1000.10 999.57 999.81 1000.64 1001.07 1002.83 1004.59 1006.66 1005.99 1006.99 1008.51 1010.27 1011.34 1012.15 1011.34 1011.40 1011.58 1012.00 1012.86 1014.07 1015.12 1015.34 1014.50 1012.57 1009.97 1009.71 1010.03 1010.55 1010.82 1011.10 1011.37
989.00 989.99 990.91 991.87 992.86 993.68 994.58 995.43 996.19 996.96 997.88 998.65 999.58 1000.61 1001.50 1002.67 1003.59 1004.35 1004.40 1004.44 1005.13 1004.93 1002.01 1000.15 999.14 998.46 999.08 999.34 1001.01 1003.14 1004.03 1004.44 1005.20 1007.03 1009.47 1011.25 1012.34 1012.26 1012.13 1012.16 1011.03 1011.60 1011.59 1012.51 1012.74 1012.05 1010.73 1009.61 1009.68 1009.79 1010.15 1010.90 1011.34 1011.75
989.68 990.45 991.30 992.16 992.99 993.83 994.67 995.48 996.23 996.95 997.69 998.53 999.47 1000.30 1001.19 1001.73 1002.64 1003.69 1004.12 1004.61 1004.92 1004.39 1002.36 1001.38 999.87 999.67 999.20 998.96 999.29 1001.36 1002.91 1002.95 1004.23 1005.07 1008.41 1010.87 1012.02 1012.26 1012.32 1011.72 1010.84 1010.24 1010.18 1010.93 1011.29 1010.66 1010.23 1009.76 1009.68 1010.02 1010.65 1011.49 1012.06 1012.63
990.38 990.98 991.68 992.43 993.23 994.07 994.90 995.59 996.29 996.99 997.67 998.49 999.46 1000.23 1001.07 1002.01 1003.03 1003.93 1004.63 1004.98 1004.65 1003.75 1000.82 999.53 999.51 999.85 999.47 999.31 999.54 1000.36 1001.36 1002.29 1003.81 1005.66 1008.35 1010.56 1011.23 1010.76 1011.57 1010.86 1010.46 1009.89 1009.88 1010.51 1010.88 1010.52 1010.95 1011.22 1011.18 1011.43 1011.91 1012.32 1013.14 1013.89
990.86 991.39 992.06 992.79 993.56 994.29 995.01 995.66 996.38 997.02 997.58 998.44 999.27 1000.18 1000.81 1002.43 1003.32 1004.29 1005.33 1004.78 1004.10 1004.60 1002.97 1000.90 999.98 1000.23 1000.02 999.79 1000.22 1000.82 1001.79 1003.01 1004.86 1007.32 1008.98 1009.82 1009.70 1010.32 1011.06 1010.73 1010.30 1009.41 1009.62 1010.28 1011.03 1010.90 1011.21 1012.50 1012.40 1012.52 1013.05 1013.90 1014.48 1015.07
991.26 992.05 992.62 993.15 993.78 994.42 995.16 995.88 996.49 997.14 997.83 998.56 999.07 1000.31 1001.46 1002.16 1003.56 1004.63 1003.50 1002.73 1003.95 1004.00 1003.09 1002.23 1001.70 1000.92 1000.72 1001.09 1001.59 1002.20 1002.85 1003.96 1005.14 1006.91 1008.61 1008.85 1008.70 1009.29 1011.11 1011.30 1010.32 1009.45 1009.59 1009.55 1010.73 1011.05 1011.81 1013.09 1013.73 1014.15 1014.68 1015.58 1016.14 1016.59
991.61 992.14 992.16 993.29 994.04 994.60 995.51 996.11 996.82 997.08 997.51 998.59 999.48 1000.40 1001.30 1002.03 1002.70 1002.05 1001.79 1000.95 1001.63 1002.78 1001.36 1002.81 1003.20 1002.40 1002.00 1002.35 1003.22 1003.48 1003.52 1004.77 1005.88 1007.51 1008.63 1009.11 1009.23 1009.55 1010.79 1010.83 1010.39 1010.03 1010.21 1010.58 1010.99 1011.63 1013.11 1013.59 1015.12 1015.69 1016.26 1017.06 1017.58 1018.23
990.56 991.66 991.89 993.06 993.94 994.59 995.29 996.07 996.67 997.12 997.76 998.56 999.43 1000.69 1001.54 1002.28 1001.71 1002.03 1001.35 1000.83 1001.49 1001.76 1001.78 1004.31 1005.07 1004.66 1003.67 1004.50 1005.08 1004.94 1005.37 1006.30 1007.56 1008.66 1008.91 1009.65 1009.98 1010.16 1010.91 1010.46 1010.28 1010.45 1010.81 1011.40 1011.89 1012.14 1013.55 1014.95 1015.91 1016.84 1017.51 1018.07 1018.65 1019.30
990.34 990.96 991.63 992.34 993.46 994.58 995.27 995.91 996.75 997.74 998.50 999.12 999.78 1000.95 1001.87 1002.04 1002.17 1001.46 1000.80 1000.75 999.96 1001.07 1003.32 1004.94 1005.98 1005.97 1005.25 1006.13 1006.20 1006.50 1006.93 1008.70 1009.07 1009.60 1009.63 1009.87 1011.09 1011.24 1010.61 1010.56 1010.70 1010.80 1011.11 1012.10 1012.90 1013.80 1014.87 1015.80 1016.88 1017.77 1018.32 1018.92 1019.45 1020.26
990.96 991.15 991.70 992.76 993.47 994.35 995.16 996.10 996.99 997.75 998.06 998.03 999.16 999.84 999.61 999.75 999.47 999.61 999.70 1000.43 1001.60 1002.83 1003.90 1005.72 1006.36 1006.74 1006.59 1007.25 1007.99 1008.70 1008.88 1009.61 1010.23 1010.39 1009.88 1010.53 1011.67 1011.66 1011.33 1011.24 1011.35 1011.35 1011.79 1012.50 1013.71 1015.12 1015.95 1016.94 1017.75 1018.53 1019.24 1019.80 1020.41 1021.06
992.40 992.47 992.73 993.25 994.29 995.18 995.75 996.30 996.97 998.09 999.34 998.75 999.03 999.92 1000.55 1000.37 1000.53 1001.36 1002.45 1003.39 1004.04 1005.05 1005.75 1006.57 1006.45 1006.97 1007.02 1007.82 1008.83 1009.39 1009.75 1009.95 1010.49 1010.79 1010.83 1011.58 1012.05 1011.99 1011.96 1012.12 1012.35 1012.55 1012.82 1013.39 1014.09 1015.31 1016.45 1017.31 1018.52 1019.32 1020.14 1020.86 1021.54 1022.19
993.81 993.96 994.14 994.59 995.33 996.17 996.91 997.53 998.15 997.96 998.26 997.97 999.29 1000.80 1001.14 1001.71 1002.65 1003.67 1004.99 1005.38 1005.51 1006.93 1007.31 1007.44 1006.87 1007.38 1007.65 1007.81 1008.73 1009.52 1010.15 1010.32 1011.04 1010.98 1011.49 1012.09 1012.32 1012.16 1012.47 1013.03 1013.49 1013.86 1014.47 1015.14 1015.77 1016.72 1017.57 1018.52 1019.32 1020.15 1021.02 1021.77 1022.41 1022.99
995.71 995.50 995.70 996.10 996.63 997.21 997.83 998.02 997.97 998.27 997.81 998.39 1000.08 1002.64 1003.56 1005.49 1006.00 1006.91 1007.46 1007.68 1008.07 1008.60 1008.58 1008.21 1008.15 1008.17 1008.33 1008.42 1009.20 1009.71 1010.42 1011.04 1011.02 1011.78 1012.29 1012.59 1013.00 1013.18 1013.29 1013.85 1014.42 1015.01 1015.76 1016.53 1017.49 1018.28 1018.98 1019.87 1020.53 1021.06 1021.82 1022.47 1023.07 1023.55
996.75 996.91 997.12 997.82 998.21 998.23 998.34 998.77 998.70 998.42 998.91 1001.70 1003.72 1005.97 1006.86 1008.04 1008.80 1008.63 1008.54 1009.11 1009.70 1009.54 1008.82 1008.59 1008.84 1009.23 1009.23 1009.48 1009.97 1010.64 1011.33 1011.37 1012.01 1012.71 1012.86 1013.41 1013.95 1013.96 1014.08 1014.54 1015.13 1016.18 1017.07 1018.01 1018.99 1019.80 1020.43 1020.96 1021.59 1022.21 1022.76 1023.18 1023.61 1024.12
997.95 997.99 997.89 998.46 998.80 998.94 999.11 999.25 999.10 999.65 1002.47 1004.93 1006.16 1008.11 1008.85 1009.35 1009.43 1009.55 1009.62 1009.70 1009.99 1009.58 1009.22 1009.36 1009.71 1009.98 1010.21 1010.50 1010.78 1011.48 1012.03 1012.17 1012.35 1013.15 1013.64 1014.07 1014.43 1014.50 1014.84 1015.53 1016.43 1017.37 1018.26 1019.22 1020.15 1020.70 1021.29 1021.87 1022.40 1023.03 1023.53 1023.88 1024.25 1024.67
999.25 999.00 1000.16 1000.04 999.54 999.12 999.32 999.43 1000.48 1002.66 1006.01 1007.82 1009.12 1009.77 1009.92 1009.92 1010.19 1010.16 1010.15 1010.30 1010.10 1010.03 1010.05 1010.19 1010.47 1010.68 1011.03 1011.17 1011.39 1011.74 1012.22 1013.06 1013.76 1014.12 1014.31 1014.55 1014.91 1015.29 1015.94 1016.60 1017.37 1018.23 1019.06 1019.90 1020.58 1021.16 1021.79 1022.41 1022.89 1023.42 1023.96 1024.37 1024.72 1025.04
1000.26 1001.84 1001.87 1001.00 1000.49 1000.21 1000.22 1001.39 1004.11 1007.19 1009.11 1010.13 1011.01 1011.02 1010.94 1011.26 1011.38 1011.32 1011.31 1011.09 1010.83 1010.81 1010.92 1010.76 1011.04 1011.77 1011.89 1012.17 1013.01 1013.46 1013.99 1014.38 1014.58 1014.85 1015.07 1015.22 1015.51 1016.07 1016.86 1017.58 1018.28 1018.94 1019.68 1020.38 1021.01 1021.63 1022.19 1022.73 1023.32 1023.87 1024.31 1024.71 1025.13 1025.40
1002.50 1002.52 1001.87 1001.44 1001.17 1001.71 1002.85 1004.41 1007.08 1009.41 1011.01 1011.77 1011.88 1012.08 1011.94 1011.97 1011.95 1011.89 1011.60 1010.97 1010.78 1011.10 1011.46 1011.87 1012.16 1012.76 1013.54 1014.16 1014.91 1015.19 1015.34 1015.44 1015.57 1015.74 1015.85 1016.12 1016.55 1017.07 1017.59 1018.19 1019.04 1019.64 1020.32 1021.02 1021.64 1022.20 1022.73 1023.34 1023.88 1024.43 1024.73 1025.10 1025.55 1025.84
1003.41 1002.95 1002.30 1001.83 1001.78 1003.03 1005.42 1007.30 1008.29 1010.81 1012.34 1012.66 1012.93 1012.87 1012.90 1012.95 1012.78 1012.47 1011.99 1011.41 1011.14 1011.32 1011.99 1013.16 1014.44 1015.52 1016.27 1016.83 1016.93 1016.62 1016.45 1016.41 1016.59 1016.86 1017.01 1017.15 1017.49 1017.99 1018.63 1019.23 1019.83 1020.46 1021.03 1021.59 1022.24 1022.95 1023.56 1023.99 1024.55 1025.09 1025.50 1025.81 1026.27 1026.50
1003.47 1003.29 1003.00 1002.69 1002.41 1004.62 1007.38 1009.09 1009.52 1011.35 1012.81 1013.59 1013.50 1013.66 1013.62 1013.72 1013.49 1013.20 1012.89 1012.61 1012.41 1012.85 1014.60 1016.29 1017.61 1018.25 1018.42 1018.65 1018.43 1018.14 1017.85 1017.54 1017.62 1017.91 1018.33 1018.61 1018.89 1019.24 1019.79 1020.24 1020.89 1021.55 1022.14 1022.69 1023.25 1023.78 1024.40 1025.06 1025.64 1026.00 1026.24 1026.61 1027.00 1027.40
1003.87 1004.21 1003.94 1003.70 1004.97 1006.85 1009.44 1010.69 1011.55 1012.53 1013.20 1013.70 1013.72 1013.91 1014.41 1014.30 1014.31 1014.29 1014.47 1014.59 1014.94 1016.82 1018.14 1019.04 1019.43 1019.86 1019.99 1019.90 1019.65 1019.39 1019.18 1018.91 1018.91 1018.72 1019.10 1019.82 1020.26 1020.51 1021.09 1021.54 1021.98 1022.59 1023.35 1024.06 1024.67 1025.44 1025.92 1026.41 1026.88 1027.07 1027.26 1027.60 1027.79 1027.87
1005.50 1005.06 1005.59 1006.17 1008.14 1009.79 1011.48 1012.04 1012.40 1012.72 1013.45 1013.99 1014.12 1014.50 1015.21 1015.55 1015.58 1015.71 1016.44 1017.19 1018.98 1019.93 1020.30 1020.64 1020.79 1020.95 1021.11 1021.14 1021.03 1020.79 1020.68 1020.50 1020.27 1020.24 1020.61 1021.14 1021.79 1022.32 1022.95 1023.38 1023.63 1024.36 1024.95 1025.49 1025.94 1026.55 1027.03 1027.46 1027.87 1028.05 1028.14 1028.32 1028.04 1028.14
1005.93 1006.35 1007.72 1009.22 1010.75 1012.32 1013.95 1013.16 1013.74 1014.09 1014.43 1014.83 1014.83 1015.55 1016.22 1016.45 1016.56 1016.48 1018.58 1020.32 1021.38 1021.72 1021.67 1021.78 1021.96 1022.12 1022.35 1022.52 1022.33 1022.22 1022.15 1022.08 1022.23 1022.53 1022.89 1023.33 1023.87 1024.39 1024.74 1025.12 1025.46 1025.84 1026.33 1026.82 1027.05 1027.42 1027.87 1028.29 1028.52 1028.72 1028.89 1028.88 1028.87 1028.79
1007.52 1009.57 1011.23 1012.30 1013.30 1014.56 1014.67 1014.76 1014.48 1015.12 1015.74 1015.71 1016.19 1016.84 1017.30 1017.52 1017.49 1018.74 1020.71 1022.25 1023.13 1023.09 1022.87 1022.76 1022.74 1023.10 1023.44 1023.68 1023.92 1023.99 1023.92 1023.90 1023.99 1024.23 1024.60 1024.87 1025.32 1025.92 1026.35 1026.74 1027.07 1027.44 1027.65 1027.89 1028.22 1028.53 1028.78 1029.00 1029.20 1029.40 1029.50 1029.53 1029.44 1029.29
1010.51 1013.67 1013.90 1014.79 1014.94 1015.21 1015.81 1015.96 1016.10 1016.26 1016.78 1016.77 1017.11 1017.72 1018.11 1018.13 1018.90 1020.58 1022.12 1023.51 1024.36 1024.52 1024.51 1024.16 1024.27 1024.32 1024.74 1025.18 1025.42 1025.51 1025.49 1025.39 1025.51 1025.80 1026.13 1026.31 1026.56 1027.00 1027.45 1027.91 1028.41 1028.84 1028.98 1029.15 1029.41 1029.54 1029.70 1029.82 1029.94 1030.07 1030.07 1029.88 1029.72 1029.53
1014.07 1016.01 1016.29 1016.43 1016.76 1016.66 1016.81 1017.06 1017.24 1017.39 1017.48 1017.85 1018.42 1018.75 1018.73 1019.22 1020.70 1022.66 1024.06 1025.15 1025.67 1025.91 1025.92 1025.69 1025.49 1025.77 1026.16 1026.43 1026.64 1026.79 1026.87 1026.54 1026.63 1026.96 1027.50 1027.57 1027.69 1027.82 1028.30 1028.84 1029.40 1030.04 1030.03 1030.02 1030.32 1030.56 1030.55 1030.58 1030.61 1030.52 1030.32 1030.10 1029.93 1029.81
1016.27 1017.22 1017.52 1017.20 1017.27 1017.40 1017.66 1017.66 1017.51 1017.90 1018.50 1019.01 1019.40 1019.53 1019.96 1021.09 1023.21 1024.75 1025.77 1026.24 1026.58 1026.99 1027.06 1026.95 1026.80 1026.90 1027.22 1027.56 1027.79 1027.92 1027.85 1027.70 1027.76 1028.13 1028.53 1028.73 1028.94 1029.22 1029.56 1030.14 1030.34 1030.79 1030.59 1030.54 1030.47 1030.71 1030.79 1030.81 1030.82 1030.79 1030.66 1030.50 1030.36 1030.17
1017.79 1018.21 1018.17 1018.21 1018.06 1018.07 1018.42 1018.54 1018.97 1019.45 1019.92 1020.24 1020.40 1021.72 1023.04 1024.35 1026.05 1026.77 1027.07 1027.15 1027.27 1027.53 1027.78 1027.99 1028.07 1028.20 1028.39 1028.60 1028.78 1028.84 1028.84 1028.76 1028.62 1028.86 1029.26 1029.75 1029.98 1030.20 1030.45 1030.71 1030.72 1030.25 1030.49 1030.47 1030.66 1030.33 1030.26 1030.31 1030.58 1030.66 1030.64 1030.47 1030.28 1029.56
1018.68 1018.91 1018.96 1019.09 1019.04 1019.33 1019.92 1020.06 1020.53 1021.26 1021.68 1021.57 1022.38 1024.19 1025.90 1027.40 1028.35 1028.18 1028.07 1028.00 1028.03 1028.09 1028.36 1028.65 1028.92 1028.98 1029.25 1029.59 1029.89 1030.13 1030.19 1030.09 1030.04 1030.36 1030.60 1030.98 1030.98 1031.31 1031.11 1031.07 1031.17 1031.05 1030.99 1031.23 1030.50 1030.02 1029.66 1029.47 1029.37 1029.63 1029.85 1029.91 1029.51 1029.43
1019.48 1019.29 1019.60 1019.93 1020.55 1020.99 1021.58 1021.63 1021.82 1022.53 1022.86 1023.23 1024.37 1026.13 1027.64 1028.84 1029.74 1029.69 1029.36 1029.14 1029.09 1029.38 1029.72 1029.95 1030.08 1030.22 1030.63 1030.64 1031.08 1031.40 1031.55 1031.53 1031.71 1031.94 1032.21 1032.47 1032.36 1032.06 1031.63 1031.39 1031.39 1031.44 1031.09 1031.30 1030.78 1030.46 1030.12 1029.85 1029.54 1029.46 1029.81 1029.73 1029.63 1029.79
1020.14 1020.07 1020.38 1020.93 1021.63 1022.07 1022.20 1022.27 1022.41 1022.74 1023.37 1024.52 1025.26 1026.53 1028.26 1029.67 1030.44 1030.79 1030.75 1030.49 1030.55 1030.57 1030.81 1031.20 1031.38 1031.56 1031.71 1031.85 1032.04 1032.25 1032.48 1032.41 1032.31 1032.44 1032.53 1032.53 1032.56 1032.53 1032.41 1031.88 1031.59 1031.61 1031.22 1031.14 1030.86 1030.67 1030.50 1030.51 1030.48 1030.16 1030.11 1030.07 1030.15 1030.31
1021.26 1021.53 1021.72 1022.23 1022.58 1022.64 1022.57 1022.75 1023.02 1023.45 1024.48 1025.48 1026.76 1027.56 1028.67 1029.49 1031.01 1031.92 1032.28 1031.91 1031.87 1031.99 1032.17 1032.20 1032.19 1032.43 1032.42 1032.54 1032.73 1032.80 1032.87 1032.78 1032.65 1032.57 1032.60 1032.46 1032.66 1032.62 1032.47 1032.25 1032.03 1031.39 1031.40 1031.48 1031.26 1030.98 1030.78 1030.76 1030.54 1030.31 1030.19 1030.34 1030.43 1030.58
1021.86 1022.22 1022.57 1023.07 1023.30 1023.52 1023.47 1023.67 1023.88 1024.97 1025.83 1026.83 1027.87 1028.45 1029.40 1030.53 1031.80 1032.54 1032.72 1032.79 1033.00 1033.21 1033.27 1033.08 1032.74 1032.47 1032.40 1032.93 1033.14 1033.09 1032.92 1033.04 1032.64 1032.17 1031.98 1031.76 1031.90 1032.08 1032.43 1032.26 1032.13 1032.10 1031.96 1031.62 1031.43 1031.22 1031.10 1030.92 1030.74 1030.48 1030.38 1030.47 1030.59 1030.87
Wind_Speed
27 26 26 24 23 22 20 22 24 20 21 24 25 25 22 23 16 11 8 9 3 3 7 3 11 8 5 6 8 12 4 4 3 6 5 3 4 5 5 8 8 7 6 4 4 3 6 5 4 7 7 3 6 5
24 23 21 21 21 20 18 17 18 22 20 22 24 24 22 22 19 10 6 6 5 5 6 7 4 7 7 10 9 4 9 7 6 6 3 5 2 3 3 3 3 1 8 7 8 8 8 2 7 5 6 5 3 5
20 21 21 22 20 19 18 17 17 18 22 24 24 23 23 20 20 17 6 1 3 4 8 7 5 3 5 6 6 8 2 6 3 5 6 3 4 5 4 5 3 2 3 4 6 2 5 6 2 7 8 10 11 11
19 21 21 20 20 19 18 16 16 20 22 23 23 23 22 21 22 15 5 3 3 4 4 1 3 6 4 6 14 4 7 6 7 5 5 4 4 3 5 5 6 6 5 5 2 3 10 10 8 11 13 12 16 16
16 18 18 17 16 15 15 17 19 22 22 20 21 20 20 17 17 8 3 6 4 4 3 2 4 5 4 7 11 10 8 7 4 4 4 3 3 6 2 4 1 3 7 5 6 1 10 4 8 12 15 13 12 14
12 13 13 14 15 15 14 15 15 17 20 21 19 19 19 18 17 4 2 9 11 9 5 3 4 7 6 7 9 9 5 3 4 5 3 2 1 6 4 3 1 6 8 4 5 9 15 13 15 16 17 14 15 16
15 15 13 14 14 13 12 12 18 16 21 21 18 17 17 20 8 5 4 2 3 4 1 5 5 7 4 5 5 4 3 4 4 3 3 4 2 5 3 4 6 7 9 8 7 12 8 4 10 14 15 15 16 14
25 22 18 18 17 15 14 14 20 19 17 18 21 20 18 14 7 5 3 7 5 3 4 5 2 5 5 2 3 3 2 4 6 2 3 3 3 3 3 6 8 9 10 11 13 15 17 16 15 13 11 11 12 9
19 20 22 23 22 20 20 22 22 21 22 23 23 22 8 4 7 6 6 11 1 6 5 4 4 3 3 3 2 5 4 4 2 3 1 6 2 2 3 10 7 6 6 11 14 16 16 16 14 11 8 8 11 10
25 22 19 20 22 21 22 24 25 25 26 24 8 5 3 1 7 5 4 6 7 4 5 4 2 1 3 2 3 3 2 3 2 4 2 4 2 3 6 7 6 5 14 16 16 12 14 13 11 11 12 10 9 9
29 28 24 22 23 25 24 23 24 26 22 3 3 4 2 5 4 5 4 5 1 5 4 1 4 2 3 3 3 0 2 1 4 4 5 1 1 4 8 8 8 13 13 11 13 14 13 15 12 11 10 10 9 9
29 30 29 26 23 23 24 26 27 8 2 6 9 4 3 6 5 7 4 4 5 3 4 2 2 3 2 2 4 1 3 3 2 1 3 2 1 10 9 8 12 14 15 16 16 15 14 13 11 11 9 9 9 9
27 29 30 28 24 22 19 24 11 9 5 5 8 7 4 5 7 1 2 2 3 3 2 2 3 2 4 4 3 3 3 1 1 3 2 1 8 6 8 9 13 14 14 16 16 14 14 13 11 11 9 8 10 9
26 26 28 23 20 20 18 11 2 2 7 7 6 7 4 4 2 2 3 3 1 2 1 3 3 2 1 4 1 5 0 3 2 4 4 3 6 6 4 8 12 14 14 13 12 11 12 12 11 9 8 7 7 7
22 24 22 25 17 14 16 13 13 7 6 7 6 6 4 1 2 0 1 2 2 2 3 3 3 2 2 4 2 4 4 4 2 2 1 5 7 5 10 13 12 12 11 11 9 11 10 10 9 9 6 6 6 5
6 12 14 21 17 15 12 8 10 6 6 6 7 3 2 2 3 3 4 3 3 3 2 2 2 3 4 2 2 3 3 3 2 1 1 6 6 9 11 11 11 10 10 9 9 10 10 8 8 8 7 6 5 5
11 6 15 13 13 12 15 8 6 9 5 5 4 2 2 3 3 2 2 2 2 2 2 1 5 1 1 3 3 4 3 2 1 2 3 5 7 10 10 8 8 11 11 10 9 8 8 7 7 5 6 5 5 4
5 7 15 11 5 7 5 7 6 6 7 4 4 4 3 3 3 2 3 3 2 2 2 3 2 4 5 4 3 2 2 2 4 4 5 7 7 9 9 10 10 10 11 9 8 7 5 5 7 6 6 6 5 6
6 10 17 11 7 6 6 6 5 6 5 2 2 2 3 2 1 3 4 3 1 2 4 4 6 4 4 4 2 5 3 2 3 4 6 7 8 9 10 10 10 9 9 8 8 7 7 9 7 6 4 4 4 3
3 17 17 18 7 6 7 5 4 5 3 2 2 3 2 2 3 3 8 7 6 5 7 6 5 3 3 3 4 3 3 3 3 6 6 6 6 8 7 7 7 10 9 9 7 7 7 7 6 5 3 5 4 3
8 8 11 8 6 9 6 4 5 3 2 3 2 2 3 3 7 7 5 6 8 6 5 4 4 6 7 6 6 5 7 7 3 1 4 5 6 7 7 7 8 7 7 6 7 7 8 6 5 4 3 3 2 2
4 10 4 8 7 6 6 6 3 1 4 0 3 3 3 3 3 5 3 8 5 5 4 3 6 6 7 11 8 9 7 8 10 10 13 10 8 8 8 6 8 8 7 6 6 6 4 4 3 3 3 2 4 2
5 7 6 7 9 8 3 3 6 4 4 3 3 4 3 3 2 2 5 4 3 6 5 3 5 9 9 10 10 12 11 10 9 9 9 8 8 8 8 8 7 7 6 5 5 4 3 4 3 3 3 3 3 3
8 8 7 6 7 5 3 5 3 4 4 3 3 4 3 3 3 5 5 3 4 6 7 8 4 5 6 9 8 8 7 7 7 8 7 7 7 7 7 6 6 6 5 5 4 3 3 2 3 3 3 3 3 2
11 10 7 7 5 6 6 5 6 5 4 4 4 3 2 2 4 4 3 3 5 6 7 5 7 7 5 5 5 7 9 6 6 7 7 4 5 5 5 6 7 7 5 5 4 4 3 4 4 3 3 3 4 4
10 8 6 6 4 4 5 4 3 2 2 3 3 1 2 2 6 5 3 4 4 4 6 7 4 5 7 7 5 6 6 4 5 6 6 6 7 5 4 4 3 3 5 3 3 4 4 4 3 5 4 7 7 3
7 6 2 2 0 1 2 1 1 4 5 5 3 3 2 4 5 4 2 4 3 3 5 6 6 6 5 4 4 3 4 5 5 5 5 6 6 6 5 4 3 2 3 3 3 2 2 3 3 3 4 4 3 3
4 4 5 5 4 4 3 5 5 5 3 4 3 5 4 5 4 3 4 2 2 3 4 4 5 5 6 6 6 6 5 4 2 4 5 6 4 4 4 2 2 1 1 1 1 2 2 3 3 3 3 3 4 4
4 4 3 4 4 4 5 5 3 3 5 3 3 4 4 4 3 4 4 5 6 6 5 4 2 2 4 5 6 6 6 7 6 7 6 3 2 4 3 3 3 3 2 3 6 6 5 3 2 3 5 5 6 2
5 2 3 4 5 5 4 4 3 3 4 4 4 4 4 3 5 6 7 6 6 5 6 7 6 6 6 5 3 5 4 4 5 4 3 2 3 4 4 3 3 3 2 2 3 4 6 5 5 5 5 4 3 2
3 4 4 4 4 2 2 0 1 3 3 4 5 5 5 4 2 5 8 5 6 7 6 5 6 6 5 6 5 3 3 4 4 4 1 1 3 3 4 5 3 3 3 4 2 2 3 3 3 3 4 4 5 3
3 4 2 4 2 2 3 2 0 2 4 2 3 3 2 4 4 3 5 5 5 6 7 6 3 2 2 2 2 1 4 3 2 2 3 1 2 3 3 3 3 4 5 5 4 4 5 6 4 5 3 1 3 3
1 3 4 4 5 3 2 3 0 3 5 3 3 3 3 4 4 2 2 3 3 2 4 4 3 2 1 2 2 3 6 3 7 8 8 6 5 2 2 3 3 3 4 4 4 4 6 9 8 6 2 3 4 0
Wind_Direction
148 153 162 167 167 172 171 182 190 189 164 173 179 172 166 163 166 190 228 233 309 300 283 265 179 155 195 141 138 149 213 315 41 81 109 194 121 234 93 167 170 158 139 184 90 95 284 186 54 131 201 107 87 59
152 158 158 157 163 167 169 179 173 162 177 175 168 165 164 169 167 173 236 218 237 259 286 323 77 159 188 173 127 144 183 177 170 95 60 89 45 41 122 204 194 90 170 175 158 211 230 141 133 158 127 130 100 83
146 149 153 158 163 164 169 174 167 167 171 170 168 169 170 172 172 186 207 189 173 268 304 281 102 15 47 96 126 124 204 155 112 146 147 137 125 125 133 247 119 98 130 106 74 283 195 193 115 77 88 89 78 76
148 152 157 157 159 164 166 170 165 164 165 169 168 171 175 181 186 187 199 247 290 273 245 168 101 46 7 66 90 116 128 67 100 65 93 123 137 174 205 193 136 199 115 155 225 287 87 46 59 86 73 68 84 67
133 142 145 147 147 144 152 158 163 169 178 167 174 173 178 171 163 170 198 246 268 328 284 263 138 46 63 60 80 81 86 95 90 71 85 182 157 90 316 69 297 172 175 144 206 174 104 77 66 84 78 68 74 83
159 143 141 146 144 145 141 152 159 177 174 171 173 170 163 144 140 153 170 256 215 217 250 73 289 4 73 85 93 100 114 111 89 117 177 52 81 104 112 165 330 103 72 93 138 88 99 97 74 69 81 78 74 76
179 189 197 175 169 169 155 168 175 166 170 170 163 155 141 147 178 186 187 186 213 173 165 47 5 340 352 57 26 46 60 63 100 92 73 131 79 82 111 144 155 98 94 80 79 108 91 110 108 89 85 83 83 83
196 201 202 185 191 194 195 182 157 152 142 144 147 135 142 163 4 319 252 260 242 198 71 93 305 25 11 30 39 346 83 49 14 119 17 101 17 65 84 117 113 110 101 87 77 76 102 103 91 91 98 105 97 97
108 156 183 194 190 181 183 171 156 149 142 138 134 129 122 184 186 210 240 246 273 113 111 85 122 190 28 23 16 22 49 61 339 96 151 83 328 117 172 130 117 116 147 123 98 94 97 97 103 105 105 99 91 87
72 89 111 133 144 139 141 136 134 139 138 119 125 184 148 311 334 308 17 32 23 10 39 93 97 41 66 45 21 72 14 152 101 250 76 86 118 80 57 78 80 104 118 117 109 112 116 113 116 102 96 93 90 82
63 73 80 95 115 127 134 133 130 137 145 211 59 26 346 333 31 26 43 74 355 39 30 20 114 210 1 115 139 176 163 28 86 262 110 238 157 146 101 78 67 72 79 81 106 108 115 116 119 111 95 88 84 79
51 60 68 84 102 120 134 141 148 153 206 147 113 131 41 23 30 59 21 351 41 63 360 55 355 82 312 147 104 345 103 52 98 199 90 141 44 111 104 98 98 94 94 96 102 106 103 102 102 99 93 95 92 94
54 57 55 54 67 86 120 158 185 136 148 50 51 55 35 0 40 113 172 350 62 20 330 17 40 69 9 38 57 81 73 142 102 68 226 303 119 118 115 112 111 110 107 95 91 89 90 89 87 98 97 101 102 95
50 55 57 53 58 65 63 65 224 26 64 66 62 61 48 108 85 25 34 53 289 262 29 75 45 67 35 49 85 93 287 77 148 177 211 128 143 131 122 127 115 111 103 98 97 99 101 99 91 82 83 88 94 97
43 40 41 21 26 54 61 58 45 56 55 62 41 57 60 111 50 54 207 101 346 271 38 46 41 74 26 87 61 122 144 171 154 147 101 138 139 131 105 104 104 104 103 103 114 117 110 107 106 104 96 92 93 94
43 38 12 352 5 30 41 39 36 53 55 52 40 58 6 59 20 20 16 17 353 352 357 61 138 87 51 94 79 29 115 74 89 60 94 122 110 101 115 109 114 116 118 121 121 121 120 122 121 121 117 110 110 112
55 56 332 346 357 28 33 69 49 49 55 44 28 5 34 60 41 27 340 298 267 72 62 35 60 74 263 76 62 15 45 37 85 89 88 95 102 119 124 127 116 119 115 117 114 109 111 118 125 117 111 144 136 95
45 343 1 356 8 45 39 47 78 67 60 34 58 22 19 14 353 354 305 292 59 66 41 78 111 47 29 47 46 43 52 36 79 83 95 99 118 117 125 112 106 112 113 111 115 124 129 108 98 85 73 57 89 65
40 20 12 24 69 87 70 34 59 82 57 27 16 357 23 344 333 319 325 313 76 116 89 46 47 29 44 30 337 357 10 24 85 75 63 74 86 100 108 105 106 108 114 129 115 98 90 87 86 75 61 62 69 43
47 21 8 20 45 75 67 30 56 75 67 88 10 36 46 4 318 340 28 15 26 54 44 46 35 13 29 7 347 350 341 11 92 100 81 70 72 83 81 92 90 91 80 67 77 94 95 79 66 63 44 69 65 358
28 347 357 15 47 54 72 39 52 107 116 70 285 65 41 2 29 26 37 2 44 31 62 33 69 56 37 22 15 23 28 28 13 17 111 101 85 85 82 75 76 76 85 81 78 67 59 63 40 27 52 47 357 312
348 346 53 28 64 53 58 5 93 48 73 173 30 60 51 24 6 31 81 39 54 32 33 24 42 48 49 40 29 27 26 44 47 54 56 65 65 64 66 69 78 75 67 63 68 81 68 67 29 5 25 346 2 357
16 31 41 38 63 51 323 8 63 18 63 352 24 48 28 35 346 31 77 55 52 23 15 51 54 59 60 42 36 41 39 51 56 56 61 65 65 60 62 56 60 75 77 62 58 81 71 73 25 358 11 13 359 359
34 50 39 44 53 68 26 15 23 57 46 36 56 64 35 346 322 68 71 69 30 15 14 21 101 89 65 49 41 30 37 47 61 60 61 73 76 70 71 71 60 46 36 67 46 42 51 33 20 30 21 358 337 346
62 3 48 19 5 45 49 39 17 48 40 17 59 39 11 343 66 65 59 91 34 20 6 11 49 44 75 78 53 35 26 47 60 62 33 65 99 104 97 86 71 49 29 41 21 22 352 17 19 12 333 337 334 324
67 23 41 23 30 36 26 62 53 40 12 72 66 252 309 35 62 57 55 54 39 15 9 5 50 71 57 41 47 31 11 360 85 71 46 37 35 45 73 93 107 48 0 62 60 27 2 348 355 358 345 337 323 356
59 52 11 329 56 130 104 286 240 67 45 33 0 336 10 71 69 78 93 23 59 39 26 17 34 56 71 78 71 43 26 28 61 85 91 70 62 60 71 92 77 254 304 52 68 76 330 324 333 338 321 314 339 333
67 35 31 355 28 14 36 18 38 38 46 349 336 41 57 37 58 45 29 31 108 103 85 67 58 59 59 54 45 34 23 349 51 76 87 87 57 54 54 75 146 273 353 51 301 286 284 264 267 276 290 282 280 286
43 339 64 29 84 57 27 22 63 51 353 348 41 55 76 60 2 10 12 37 31 61 55 41 59 73 74 70 59 46 33 24 48 53 45 31 17 359 348 17 36 16 8 3 340 340 327 313 303 272 260 271 256 249
27 322 41 52 55 53 46 2 72 93 26 45 99 108 80 73 36 18 17 24 29 62 56 47 42 50 32 39 72 65 35 45 54 80 75 350 277 294 326 351 340 322 327 340 310 312 335 348 331 336 342 330 350 5
350 352 27 49 82 64 43 302 118 92 80 65 35 78 117 132 107 32 16 29 42 30 67 53 50 34 36 32 27 35 2 341 77 88 57 297 336 345 356 344 336 326 318 291 309 311 303 313 294 293 306 324 345 50
43 32 52 42 95 118 67 23 66 47 119 103 106 98 143 98 72 25 357 9 32 42 35 36 43 35 16 354 33 106 196 289 17 280 286 240 273 280 316 322 318 337 352 346 338 331 326 314 292 288 289 8 320 305
113 63 33 40 22 30 351 42 111 73 43 63 48 68 62 79 87 133 57 28 73 54 10 360 334 321 161 102 20 355 34 3 349 354 5 328 258 260 302 294 315 325 331 319 314 313 316 315 317 311 324 320 309 15